This demonstration page uses our WeatherBlox Daily Observations layout. Learn more.

Left ArrowRight Arrow

41.86663, -103.66717

Hourly Observations for November 3, 2016

Temp ( °F °C ) Dew Point ( °F °C ) Humidity (%) Winds ( mph kmh ) Pressure ( in mb ) Visibility ( mi km ) Precip ( " mm )
12:53 am 00:53 Clear 31 -0.6 25 -3.9 79 79 N N/A 30.38 1029 10 16 N/A
1:53 am 01:53 Clear 33 0.6 26 -3.3 75 75 NW 5 7 30.37 1028 10 16 N/A
2:53 am 02:53 Clear 32 undefined 25 -3.9 75 75 N N/A 30.36 1028 10 16 N/A
3:53 am 03:53 Clear 29 -1.7 23 -5 78 78 NNW 5 7 30.37 1028 10 16 N/A
4:53 am 04:53 Clear 30 -1.1 24 -4.4 79 79 N N/A 30.37 1028 10 16 N/A
5:53 am 05:53 Clear 27 -2.8 23 -5 85 85 NNW 6 9 30.41 1030 10 16 N/A
6:53 am 06:53 Clear 28 -2.2 24 -4.4 85 85 W 8 13 30.43 1030 10 16 N/A
7:53 am 07:53 Sunny 26 -3.3 22 -5.6 84 84 NW 6 9 30.48 1032 10 16 N/A
8:53 am 08:53 Sunny 35 1.7 27 -2.8 72 72 W 5 7 30.47 1032 10 16 N/A
9:53 am 09:53 Sunny 46 7.8 31 -0.6 56 56 NW 9 15 30.46 1032 10 16 N/A
10:53 am 10:53 Sunny 53 11.7 29 -1.7 40 40 NW 13 20 30.46 1032 10 16 N/A
11:53 am 11:53 Sunny 59 15 28 -2.2 31 31 WNW 10 17 30.43 1030 10 16 N/A
12:53 pm 12:53 Sunny 64 17.8 27 -2.8 25 25 W 10 17 30.41 1030 10 16 N/A
1:53 pm 13:53 Sunny 68 20 22 -5.6 17 17 WNW 6 9 30.37 1029 10 16 N/A
2:53 pm 14:53 Sunny 70 21.1 14 -10 11 11 NNW 6 9 30.37 1028 10 16 N/A
3:53 pm 15:53 Sunny 71 21.7 16 -8.9 12 12 VRB 3 6 30.37 1028 10 16 N/A
4:53 pm 16:53 Sunny 70 21.1 14 -10 11 11 N N/A 30.37 1028 10 16 N/A
5:53 pm 17:53 Clear 65 18.3 16 -8.9 15 15 N N/A 30.39 1029 10 16 N/A
6:53 pm 18:53 Clear 55 12.8 20 -6.7 25 25 S 6 9 30.42 1030 10 16 N/A
7:53 pm 19:53 Clear 44 6.7 21 -6.1 40 40 NE 6 9 30.46 1032 10 16 N/A
8:53 pm 20:53 Clear 43 6.1 22 -5.6 43 43 NE 7 11 30.45 1031 10 16 N/A
9:53 pm 21:53 Clear 43 6.1 22 -5.6 43 43 N N/A 30.42 1030 10 16 N/A
10:53 pm 22:53 Clear 39 3.9 23 -5 53 53 N N/A 30.42 1030 10 16 N/A
11:53 pm 23:53 Clear 39 3.9 23 -5 53 53 NNW 5 7 30.41 1030 10 16 N/A

Powered by AerisWeather